DW8463 Weather Reports


time (UTC)temp
F
wind
direction
speed
knots
gust
knots
rain 1hr
in
rain 24hr
in
rain mn
in
humidity
%
barometer
mb
20260503222304 70 308 7.0 12.2 0.00 0.00 0.00 28 1003.6
20260503221803 70 307 4.3 13.9 0.00 0.00 0.00 28 1003.6
20260503221303 70 288 5.2 10.4 0.00 0.00 0.00 28 1003.5
20260503220803 71 271 5.2 13.0 0.00 0.00 0.00 28 1003.6
20260503220303 71 288 4.3 10.4 0.00 0.00 0.00 28 1003.6
20260503215803 71 287 6.1 12.2 0.00 0.00 0.00 29 1003.6
20260503215304 71 293 5.2 11.3 0.00 0.00 0.00 29 1003.5
20260503214802 70 317 7.8 12.2 0.00 0.00 0.00 29 1003.5
20260503214302 71 314 6.1 12.2 0.00 0.00 0.00 29 1003.5
20260503213802 71 317 5.2 8.7 0.00 0.00 0.00 29 1003.5
20260503213303 71 279 4.3 10.4 0.00 0.00 0.00 29 1003.5
20260503212803 70 330 5.2 12.2 0.00 0.00 0.00 29 1003.6
20260503212304 70 326 8.7 14.8 0.00 0.00 0.00 29 1003.6
20260503211803 71 341 7.0 13.0 0.00 0.00 0.00 29 1003.6
20260503211303 70 321 7.0 15.6 0.00 0.00 0.00 29 1003.7
20260503210303 71 318 5.2 14.8 0.00 0.00 0.00 29 1003.8
20260503205803 70 262 4.3 12.2 0.00 0.00 0.00 33 1003.8
20260503205304 70 342 7.8 12.2 0.00 0.00 0.00 33 1003.9
20260503204803 70 306 6.1 10.4 0.00 0.00 0.00 33 1003.9
20260503204303 71 307 5.2 12.2 0.00 0.00 0.00 33 1004.0
20260503203803 71 268 5.2 15.6 0.00 0.00 0.00 33 1004.1
20260503203303 71 335 7.8 13.0 0.00 0.00 0.00 33 1004.1
20260503202803 70 293 8.7 13.0 0.00 0.00 0.00 33 1004.2
20260503202304 70 341 7.8 13.9 0.00 0.00 0.00 33 1004.3
20260503200803 70 341 6.1 17.4 0.00 0.00 0.00 33 1004.3
20260503200303 70 315 4.3 10.4 0.00 0.00 0.00 33 1004.2
20260503195802 71 335 8.7 13.0 0.00 0.00 0.00 31 1004.3
20260503195304 71 310 8.7 14.8 0.00 0.00 0.00 31 1004.2
20260503194803 71 302 5.2 14.8 0.00 0.00 0.00 31 1004.2
20260503194303 70 346 7.8 13.9 0.00 0.00 0.00 31 1004.2
20260503193803 70 333 6.1 12.2 0.00 0.00 0.00 31 1004.3
20260503193303 70 257 5.2 10.4 0.00 0.00 0.00 31 1004.3
20260503192803 70 310 7.0 13.9 0.00 0.00 0.00 31 1004.5
20260503192305 70 310 6.1 14.8 0.00 0.00 0.00 31 1004.4
20260503191303 70 308 9.6 15.6 0.00 0.00 0.00 31 1004.5
20260503190803 70 341 10.4 15.6 0.00 0.00 0.00 31 1004.4
20260503190303 70 328 10.4 18.2 0.00 0.00 0.00 31 1004.5
20260503185305 70 318 6.1 15.6 0.00 0.00 0.00 36 1004.6
20260503184803 69 322 7.8 17.4 0.00 0.00 0.00 36 1004.6
20260503184302 70 328 8.7 17.4 0.00 0.00 0.00 36 1004.6
20260503183803 69 292 3.5 12.2 0.00 0.00 0.00 36 1004.5
20260503183303 69 299 7.0 12.2 0.00 0.00 0.00 36 1004.6
20260503182803 69 334 3.5 13.9 0.00 0.00 0.00 36 1004.6
20260503180803 69 332 7.0 13.9 0.00 0.00 0.00 36 1004.9
20260503180303 69 355 7.0 13.9 0.00 0.00 0.00 36 1004.8
20260503175803 69 324 5.2 10.4 0.00 0.00 0.00 40 1004.9
20260503175304 69 324 4.3 15.6 0.00 0.00 0.00 40 1004.9
20260503174803 68 279 10.4 15.6 0.00 0.00 0.00 40 1004.9
20260503174303 69 338 7.0 11.3 0.00 0.00 0.00 40 1004.8
20260503173303 68 314 7.8 15.6 0.00 0.00 0.00 40 1004.9
20260503172803 68 321 6.1 13.0 0.00 0.00 0.00 40 1005.0
20260503171803 67 327 7.8 15.6 0.00 0.00 0.00 40 1005.0
20260503171303 67 277 5.2 13.9 0.00 0.00 0.00 40 1005.0
20260503170803 67 310 9.6 17.4 0.00 0.00 0.00 40 1005.1
20260503170303 67 317 7.8 13.0 0.00 0.00 0.00 40 1005.1
20260503150803 62 0 5.2 8.7 0.00 0.00 0.00 46 1004.7
20260503150303 61 302 6.1 8.7 0.00 0.00 0.00 46 1004.7
20260503140303 59 236 4.3 11.3 0.00 0.00 0.00 46 1004.7
20260503131303 56 0 2.6 10.4 0.00 0.00 0.00 49 1004.7
20260503130803 56 340 0.9 7.0 0.00 0.00 0.00 49 1004.8
20260503130303 55 291 4.3 7.8 0.00 0.00 0.00 49 1004.8
20260503110803 52 0 1.7 5.2 0.00 0.00 0.00 49 1004.4
20260503110303 52 0 2.6 8.7 0.00 0.00 0.00 49 1004.5
20260503090303 54 0 1.7 10.4 0.00 0.00 0.00 46 1005.7
20260503081303 56 0 4.3 10.4 0.00 0.00 0.00 42 1006.4
20260503080803 56 0 5.2 13.0 0.00 0.00 0.00 42 1006.6
20260503080303 56 0 4.3 13.0 0.00 0.00 0.00 42 1006.7
20260503072803 56 0 7.8 17.4 0.00 0.00 0.00 44 1006.7
20260503072305 55 0 5.2 13.0 0.00 0.00 0.00 44 1007.2
20260503071803 55 0 3.5 8.7 0.00 0.00 0.00 44 1007.4
20260503070803 55 0 2.6 7.8 0.00 0.00 0.00 44 1007.7
20260503070303 55 0 2.6 8.7 0.00 0.00 0.00 44 1007.6
20260503060303 53 0 0.0 2.6 0.00 0.00 0.00 43 1008.5
20260503054803 54 0 1.7 4.3 0.00 0.00 0.00 49 1008.5
20260503054303 54 0 0.9 4.3 0.00 0.00 0.00 49 1008.4
20260503053803 54 0 0.9 5.2 0.00 0.00 0.00 49 1008.5
20260503053303 54 0 0.9 7.0 0.00 0.00 0.00 49 1008.5
20260503052803 54 0 0.9 2.6 0.00 0.00 0.00 49 1008.6
20260503052305 54 0 0.9 4.3 0.00 0.00 0.00 49 1008.7
20260503051803 54 0 0.9 2.6 0.00 0.00 0.00 49 1008.9
20260503051303 54 0 0.9 2.6 0.00 0.00 0.00 49 1008.9
20260503050814 54 0 0.9 2.6 0.00 0.00 0.00 49 1009.0
20260503050304 54 0 0.9 4.3 0.00 0.00 0.00 49 1009.1
20260503045802 54 0 0.9 2.6 0.00 0.00 0.00 47 1009.1
20260503045305 54 0 1.7 2.6 0.00 0.00 0.00 47 1009.1
20260503044803 54 0 0.9 4.3 0.00 0.00 0.00 47 1009.2
20260503044303 55 0 0.0 0.9 0.00 0.00 0.00 47 1009.3
20260503043803 55 0 0.9 2.6 0.00 0.00 0.00 47 1009.3
20260503042803 55 0 0.0 0.0 0.00 0.00 0.00 47 1009.4
20260503042305 56 0 0.0 0.0 0.00 0.00 0.00 47 1009.6
20260503041803 56 0 0.0 0.0 0.00 0.00 0.00 47 1009.5
20260503040804 56 0 0.0 0.0 0.00 0.00 0.00 47 1009.7
20260503040303 56 0 0.0 0.0 0.00 0.00 0.00 47 1009.9
20260503035804 56 0 0.0 1.7 0.00 0.00 0.00 45 1010.1
20260503035305 56 0 0.9 2.6 0.00 0.00 0.00 45 1010.2
20260503034803 56 0 0.9 2.6 0.00 0.00 0.00 45 1010.2
20260503034303 56 0 0.0 1.7 0.00 0.00 0.00 45 1010.4
20260503033803 57 0 0.0 2.6 0.00 0.00 0.00 45 1010.4
20260503033303 57 0 0.9 2.6 0.00 0.00 0.00 45 1010.5
20260503032304 57 0 0.0 1.7 0.00 0.00 0.00 45 1010.5
20260503031804 57 0 0.9 2.6 0.00 0.00 0.00 45 1010.6
20260503031303 58 0 0.9 2.6 0.00 0.00 0.00 45 1010.7
20260503030803 58 0 0.0 2.6 0.00 0.00 0.00 45 1010.8
20260503030303 58 0 0.9 1.7 0.00 0.00 0.00 45 1010.9
20260503024804 59 0 1.7 2.6 0.00 0.00 0.00 40 1011.2
20260503023303 59 0 3.5 10.4 0.00 0.00 0.00 40 1011.2
20260503022305 60 0 3.5 8.7 0.00 0.00 0.00 40 1011.4
20260503021803 60 0 2.6 8.7 0.00 0.00 0.00 40 1011.3
20260503021303 60 0 2.6 7.0 0.00 0.00 0.00 40 1011.3
20260503020803 61 0 3.5 8.7 0.00 0.00 0.00 40 1011.3
20260503020303 61 0 2.6 10.4 0.00 0.00 0.00 40 1011.2
20260503015803 60 0 4.3 13.9 0.00 0.00 0.00 34 1011.3
20260503014803 60 0 2.6 7.8 0.00 0.00 0.00 34 1011.3
20260503014303 60 0 2.6 8.7 0.00 0.00 0.00 34 1011.3
20260503013802 60 0 3.5 8.7 0.00 0.00 0.00 34 1011.3
20260503013303 59 0 2.6 13.0 0.00 0.00 0.00 34 1011.4
20260503012802 59 0 1.7 2.6 0.00 0.00 0.00 34 1011.3
20260503012305 59 0 1.7 7.0 0.00 0.00 0.00 34 1011.2
20260503011803 59 0 1.7 2.6 0.00 0.00 0.00 34 1011.2
20260503011303 59 0 1.7 2.6 0.00 0.00 0.00 34 1011.2
20260503010803 59 0 0.9 4.3 0.00 0.00 0.00 34 1011.1
20260503010303 59 0 0.9 2.6 0.00 0.00 0.00 34 1011.0
20260503005803 59 0 0.9 2.6 0.00 0.00 0.00 32 1011.0
20260503005304 60 0 0.9 2.6 0.00 0.00 0.00 32 1011.0
20260503004804 60 0 0.9 2.6 0.00 0.00 0.00 32 1011.0
20260503004303 60 0 1.7 2.6 0.00 0.00 0.00 32 1011.1
20260503003803 60 0 0.9 2.6 0.00 0.00 0.00 32 1011.2
20260503003303 60 0 1.7 2.6 0.00 0.00 0.00 32 1011.2
20260503002803 61 0 0.9 2.6 0.00 0.00 0.00 32 1011.2
20260503001803 61 0 1.7 2.6 0.00 0.00 0.00 32 1011.3
20260503001303 61 0 1.7 4.3 0.00 0.00 0.00 32 1011.4
20260503000803 61 0 1.7 4.3 0.00 0.00 0.00 32 1011.5
20260503000304 62 0 1.7 4.3 0.00 0.00 0.00 32 1011.5
20260502235804 62 0 1.7 5.2 0.00 0.00 0.00 30 1011.6
20260502235304 62 0 2.6 7.0 0.00 0.00 0.00 30 1011.6
20260502234803 62 0 0.9 2.6 0.00 0.00 0.00 30 1011.7
20260502234303 62 0 1.7 5.2 0.00 0.00 0.00 30 1011.8
20260502233803 62 0 4.3 7.0 0.00 0.00 0.00 30 1011.8
20260502233303 62 0 2.6 8.7 0.00 0.00 0.00 30 1011.8
20260502232803 62 0 2.6 5.2 0.00 0.00 0.00 30 1012.0
20260502232304 62 0 2.6 10.4 0.00 0.00 0.00 30 1012.0
20260502231803 62 0 4.3 10.4 0.00 0.00 0.00 30 1012.0
20260502231303 62 0 2.6 8.7 0.00 0.00 0.00 30 1012.0
20260502230803 62 0 1.7 7.0 0.00 0.00 0.00 30 1012.1
20260502230303 62 0 3.5 8.7 0.00 0.00 0.00 30 1012.2
20260502225803 63 0 5.2 10.4 0.00 0.00 0.00 30 1012.2
20260502224803 63 291 1.7 7.0 0.00 0.00 0.00 30 1012.3
20260502224303 63 285 2.6 8.7 0.00 0.00 0.00 30 1012.5
20260502223803 63 248 4.3 8.7 0.00 0.00 0.00 30 1012.6
20260502223303 63 255 5.2 11.3 0.00 0.00 0.00 30 1012.6